Date String (YYYY-MM-DD hh:mm:ss) UTC,Instrument flags,Ambient pressure (hPa),Sample flow (lpm),Bypass flow (lpm),Sample temperature (°C),Ambient temperature (°C),ASC tube jacket temperature (°C),LED temperature (°C),Box temperature (°C),Sample RH (%),Span deviation,Mass concentration (μg/m³),Mass concentration (μg/m³),Mass concentration (μg/m³)
DateTimeUTC,F1_M11,P_M11,Q1_M11,Q2_M11,T1_M11,T2_M11,T3_M11,T4_M11,T5_M11,U1_M11,ZSPAN_M11,X2_M11,X0_M11,X1_M11
2022-04-12 09:00:00,,0801.4,5.01,0.00,25.6,24.8,00.0,34.6,27.5,13.6,0000.0,0005.30,0014.75,0001.87
2022-04-12 09:01:00,,0801.4,4.99,0.00,25.6,24.9,00.0,34.6,27.5,13.5,0000.0,0005.36,0014.87,0001.91
2022-04-12 09:02:00,,0801.4,5.00,0.00,25.6,24.9,00.0,34.6,27.5,13.4,0000.0,0005.41,0015.21,0001.96
2022-04-12 09:03:00,,0801.4,5.02,0.00,25.6,24.9,00.0,34.6,27.5,13.4,0000.0,0005.47,0016.01,0001.99
2022-04-12 09:04:00,,0801.4,5.00,0.00,25.7,24.9,00.0,34.6,27.5,14.0,0000.0,0005.54,0016.86,0001.99
2022-04-12 09:05:00,,0801.4,4.99,0.00,25.7,24.9,00.0,34.6,27.6,14.1,0000.0,0005.52,0017.50,0002.01
2022-04-12 09:06:00,,0801.4,4.99,0.00,25.7,24.9,00.0,34.6,27.6,14.2,0000.0,0005.56,0018.69,0002.04
2022-04-12 09:07:00,,0801.4,5.02,0.00,25.7,25.0,00.0,34.6,27.6,14.3,0000.0,0005.61,0019.22,0002.06
2022-04-12 09:08:00,,0801.4,4.99,0.00,25.7,25.0,00.0,34.6,27.6,14.3,0000.0,0005.58,0019.47,0002.07
2022-04-12 09:09:00,,0801.4,4.99,0.00,25.7,25.0,00.0,34.6,27.6,14.5,0000.0,0005.61,0019.93,0002.08
2022-04-12 09:10:00,,0801.4,5.01,0.00,25.8,25.0,00.0,34.7,27.7,14.4,0000.0,0005.60,0020.75,0002.08
2022-04-12 09:11:00,,0801.4,4.99,0.00,25.8,25.0,00.0,34.7,27.7,14.2,0000.0,0005.59,0020.92,0002.06
2022-04-12 09:12:00,,0801.4,4.99,0.00,25.8,25.0,00.0,34.7,27.7,13.8,0000.0,0005.59,0021.52,0002.06
2022-04-12 09:13:00,,0801.4,5.00,0.00,25.8,25.1,00.0,34.7,27.7,13.7,0000.0,0005.62,0022.18,0002.08
2022-04-12 09:14:00,,0801.4,4.99,0.00,25.8,25.1,00.0,34.7,27.7,13.6,0000.0,0005.56,0021.89,0002.07
2022-04-12 09:15:00,,0801.4,5.00,0.00,25.8,25.1,00.0,34.7,27.7,13.3,0000.0,0005.61,0021.80,0002.10
2022-04-12 09:16:00,,0801.3,5.01,0.00,25.8,25.1,00.0,34.7,27.8,13.1,0000.0,0005.61,0021.29,0002.13
2022-04-12 09:17:00,,0801.3,4.99,0.00,25.8,25.1,00.0,34.7,27.8,13.1,0000.0,0005.64,0020.78,0002.13
2022-04-12 09:18:00,,0801.3,5.01,0.00,25.9,25.1,00.0,34.7,27.8,12.9,0000.0,0005.66,0021.42,0002.15
2022-04-12 09:19:00,,0801.3,5.01,0.00,25.9,25.1,00.0,34.7,27.8,13.0,0000.0,0005.72,0020.87,0002.19
2022-04-12 09:20:00,,0801.4,5.00,0.00,25.9,25.1,00.0,34.8,27.8,12.7,0000.0,0005.78,0021.13,0002.21
2022-04-12 09:21:00,,0801.3,4.99,0.00,25.9,25.1,00.0,34.8,27.8,12.9,0000.0,0005.83,0021.10,0002.24
2022-04-12 09:22:00,,0801.4,5.01,0.00,25.9,25.1,00.0,34.8,27.8,12.7,0000.0,0005.80,0020.79,0002.26
2022-04-12 09:23:00,,0801.3,5.02,0.00,25.9,25.1,00.0,34.8,27.8,12.7,0000.0,0005.81,0020.23,0002.26
2022-04-12 09:24:00,,0801.3,4.99,0.00,25.9,25.1,00.0,34.8,27.8,12.8,0000.0,0005.86,0019.54,0002.24
2022-04-12 09:25:00,,0801.2,5.01,0.00,25.9,25.1,00.0,34.8,27.8,13.0,0000.0,0005.92,0019.74,0002.23
2022-04-12 09:26:00,,0801.2,4.99,0.00,25.9,25.1,00.0,34.8,27.8,13.0,0000.0,0005.84,0020.38,0002.20
2022-04-12 09:27:00,,0801.2,5.01,0.00,25.9,25.1,00.0,34.8,27.8,12.9,0000.0,0005.86,0021.41,0002.20
2022-04-12 09:28:00,,0801.2,4.99,0.00,25.9,25.1,00.0,34.8,27.7,12.9,0000.0,0005.94,0021.72,0002.20
2022-04-12 09:29:00,,0801.3,5.01,0.00,25.9,25.1,00.0,34.8,27.8,12.8,0000.0,0005.94,0021.21,0002.20
2022-04-12 09:30:00,,0801.3,5.00,0.00,25.9,25.1,00.0,34.8,27.8,12.7,0000.0,0005.98,0021.68,0002.18
2022-04-12 09:31:00,,0801.3,4.99,0.00,25.9,25.1,00.0,34.8,27.8,12.7,0000.0,0005.97,0021.54,0002.17
2022-04-12 09:32:00,,0801.3,5.01,0.00,25.9,25.1,00.0,34.8,27.8,12.6,0000.0,0005.98,0021.70,0002.18
2022-04-12 09:33:00,,0801.4,5.00,0.00,25.9,25.1,00.0,34.8,27.8,12.8,0000.0,0006.12,0021.79,0002.19
2022-04-12 09:34:00,,0801.3,4.99,0.00,25.9,25.1,00.0,34.8,27.8,13.1,0000.0,0006.18,0022.24,0002.21
2022-04-12 09:35:00,,0801.3,5.00,0.00,26.0,25.1,00.0,34.8,27.8,12.9,0000.0,0006.15,0023.12,0002.21
2022-04-12 09:36:00,,0801.3,4.99,0.00,26.0,25.1,00.0,34.8,27.8,12.9,0000.0,0006.09,0023.24,0002.22
2022-04-12 09:37:00,,0801.3,5.00,0.00,26.0,25.1,00.0,34.9,27.8,12.8,0000.0,0006.08,0023.00,0002.22
2022-04-12 09:38:00,,0801.3,5.01,0.00,26.0,25.1,00.0,34.9,27.8,12.8,0000.0,0006.06,0021.92,0002.22
2022-04-12 09:39:00,,0801.3,4.99,0.00,26.0,25.1,00.0,34.9,27.9,13.1,0000.0,0006.04,0021.37,0002.23
2022-04-12 09:40:00,,0801.4,5.00,0.00,26.0,25.1,00.0,34.9,27.8,13.1,0000.0,0006.01,0021.03,0002.23
2022-04-12 09:41:00,,0801.4,5.00,0.00,26.0,25.1,00.0,34.9,27.8,13.0,0000.0,0005.87,0020.87,0002.22
2022-04-12 09:42:00,,0801.5,4.99,0.00,26.0,25.1,00.0,34.9,27.8,13.0,0000.0,0005.84,0020.91,0002.21
2022-04-12 09:43:00,,0801.4,5.01,0.00,26.0,25.1,00.0,34.9,27.9,12.9,0000.0,0005.88,0020.42,0002.20
2022-04-12 09:44:00,,0801.4,5.00,0.00,26.0,25.1,00.0,34.9,27.9,12.9,0000.0,0005.85,0020.98,0002.18
2022-04-12 09:45:00,,0801.4,4.99,0.00,26.0,25.1,00.0,34.9,27.9,12.9,0000.0,0005.74,0021.76,0002.15
2022-04-12 09:46:00,,0801.4,5.01,0.00,26.0,25.1,00.0,34.9,27.9,12.7,0000.0,0005.78,0021.61,0002.15
2022-04-12 09:47:00,,0801.4,5.02,0.00,26.1,25.2,00.0,34.9,27.9,12.7,0000.0,0005.73,0021.33,0002.14
2022-04-12 09:48:00,,0801.4,4.99,0.00,26.1,25.2,00.0,34.9,27.9,12.6,0000.0,0005.73,0021.95,0002.15
2022-04-12 09:49:00,,0801.3,5.00,0.00,26.1,25.1,00.0,34.9,27.9,12.6,0000.0,0005.79,0022.61,0002.15
2022-04-12 09:50:00,,0801.3,5.01,0.00,26.1,25.1,00.0,35.0,27.9,12.5,0000.0,0005.74,0023.08,0002.14
2022-04-12 09:51:00,,0801.4,5.00,0.00,26.1,25.1,00.0,35.0,27.9,12.5,0000.0,0005.71,0023.57,0002.14
2022-04-12 09:52:00,,0801.4,4.99,0.00,26.1,25.1,00.0,35.0,27.9,12.5,0000.0,0005.85,0024.50,0002.15
2022-04-12 09:53:00,,0801.4,4.99,0.00,26.1,25.1,00.0,35.0,27.9,12.5,0000.0,0005.92,0025.57,0002.18
2022-04-12 09:54:00,,0801.5,5.01,0.00,26.1,25.2,00.0,35.0,27.9,12.5,0000.0,0005.93,0026.46,0002.19
2022-04-12 09:55:00,,0801.4,4.99,0.00,26.1,25.2,00.0,35.0,27.9,12.2,0000.0,0005.82,0026.71,0002.20
2022-04-12 09:56:00,,0801.3,5.01,0.00,26.1,25.2,00.0,35.0,27.9,11.8,0000.0,0005.82,0025.78,0002.21
2022-04-12 09:57:00,,0801.3,5.00,0.00,26.1,25.2,00.0,35.0,27.9,11.8,0000.0,0005.79,0025.66,0002.21
2022-04-12 09:58:00,,0801.4,5.00,0.00,26.1,25.2,00.0,35.0,27.9,11.7,0000.0,0005.85,0027.09,0002.25
2022-04-12 09:59:00,,0801.4,5.00,0.00,26.1,25.1,00.0,35.0,27.9,11.9,0000.0,0005.88,0026.24,0002.26
